Location: Maccacari
(45.1333°N, 11.1333°E)
Time: 08:38:56
(UTC+00:00)

Cosmos 2150 Rocket - Pass Details

Date: 18 September 2020
Orbit: 749 x 808 km, 74.0° (Epoch: 29 October)

Event Time Altitude Azimuth Distance (km) Brightness Sun altitude
Rises 18:45:03 0° 184° (S) 3,253 7.1 -15.5°
Reaches altitude 10° 18:47:28 10° 179° (S) 2,339 6.3 -15.9°
Maximum altitude 18:52:36 50° 105° (ESE) 1,002 4.2 -16.8°
Drops below altitude 10° 18:57:50 10° 31° (NNE) 2,388 6.5 -17.7°
Sets 19:00:19 0° 26° (NNE) 3,328 7.3 -18.1°
